Regional Weather Roundup
Issued by NWS

Home | Current Version | Previous Version | Graphics & Text | Print | Product List | Glossary On
Versions: 1 2 3 4 5 6 7 8 9 10 11 12 13 14 15 16 17 18 19 20 21 22 23 24 25 26 27
000
ASUS45 KSLC 100310
RWRUT

UTAH REGIONAL WEATHER ROUNDUP
NATIONAL WEATHER SERVICE SALT LAKE CITY UT
800 PM MST FRI DEC 09 2016

UTZ001>011-023>025-100400-

NORTHERN UTAH

CITY           SKY/WX    TMP DP  RH WIND       PRES   REMARKS
BRIGHAM CITY     N/A     33  31  93 SE6       30.09F WCI  27
HILL AFB       CLOUDY    37  30  77 S7        30.08S WCI  31
LOGAN          CLOUDY    33  33 100 SE3       30.07F FOG
OGDEN          CLOUDY    34  32  92 S5        30.08S WCI  30
SALT LAKE CITY CLOUDY    33  29  85 CALM      30.09S
WENDOVER       MOCLDY    27  21  80 CALM      30.09F
HEBER CITY     MOCLDY    32  27  80 CALM      30.10S

$$

UTZ011>015-024>027-100400-

CENTRAL/NORTHEAST UTAH

CITY           SKY/WX    TMP DP  RH WIND       PRES   REMARKS
PROVO AIRPORT  MOCLDY    35  29  78 SW6       30.13S WCI  30
MOAB/CANYONLAN CLEAR     26   9  48 W3        30.23F
DELTA          CLOUDY    43  28  56 S8        30.12F
PRICE          PTCLDY    24  10  55 NE7       30.22S WCI  16
RICHFIELD      MOCLDY    32  25  74 N1        30.16
ROOSEVELT      CLOUDY    23  19  86 SW3       30.21S
VERNAL         CLOUDY    24  14  65 N5        30.19S WCI  18

$$

UTZ013>016-019>022-027-100400-

SOUTHERN UTAH

CITY           SKY/WX    TMP DP  RH WIND       PRES   REMARKS
BRYCE CANYON   PTCLDY    21  17  84 W5        30.25S WCI  15
CEDAR CITY     MOCLDY    37  29  72 S5        30.19R WCI  33
MILFORD        MOCLDY    40  29  64 S18       30.16F WCI  31
ST GEORGE      MOCLDY    45  23  42 NW3       30.24S
HANKSVILLE     MOCLDY    27   9  46 CALM      30.28R
KANAB          MOCLDY    30  27  86 NE5       30.27  WCI  25
BLANDING       CLEAR     31  21  67 N6        30.32S WCI  25

$$

REGIONAL REPORTS     COLORADO/ARIZONA

CITY           SKY/WX    TMP DP  RH WIND       PRES   REMARKS
CRAIG, CO      CLOUDY    30  25  81 VRB3      30.15F
GRAND JUNCTION CLOUDY    28  18  66 E3        30.25F
RIFLE, CO      CLOUDY    30  22  72 CALM      30.26S
MONTROSE, CO   CLOUDY    28  20  71 W3        30.27S
CORTEZ, CO     CLEAR     29  24  82 NE6       30.28R WCI  23
COLORADO CITY    N/A     32  28  86 SE3       30.26S
PAGE, AZ       CLEAR     39  15  37 CALM      30.23F HAZE
GRAND CANYON   PTCLDY    30  29  96 CALM      30.26F
KINGMAN, AZ    CLEAR     43  28  55 CALM      30.21S
FLAGSTAFF, AZ  CLEAR     28  26  92 CALM      30.28R

$$

REGIONAL REPORTS    NEVADA/IDAHO/WYOMING

CITY           SKY/WX    TMP DP  RH WIND       PRES   REMARKS
LAS VEGAS, NV  MOCLDY    52  12  20 SW5       30.19F
ELY, NY        MOCLDY    32  20  61 S3        30.17R
ELKO, NV       MOCLDY    38  27  64 W9        30.06F WCI  31
POCATELLO, ID  LGT RAIN  35  33  92 NE3       30.04F
BURLEY, ID     LGT RAIN  41  33  73 S13       29.99F
FORT BRIDGER,  CLOUDY    36  28  72 W12G17    30.09F WCI  28
EVANSTON, WY   CLOUDY    34  24  67 SW9       30.08F WCI  27
ROCK SPRINGS,  CLOUDY    34  27  75 W15       30.07S WCI  24
KEMMERER, WY   FLURRIES  32  30  93 W8        30.07R WCI  25

$$




USA.gov is the U.S. government's official web portal to all federal, state and local government web resources and services.